AirNav   Air Wisconsin pilot careers
 
 1691 users online  

13K Lt. William M. Milliken Airport
Eureka, Kansas, USA

GOING TO EUREKA?


FAA INFORMATION EFFECTIVE 21 JUNE 2018

Location

FAA Identifier: 13K
Lat/Long: 37-51-05.8000N / 096-17-31.3000W
37-51.096667N / 096-17.521667W
37.8516111 / -96.2920278
(estimated)
Elevation: 1208.1 ft. / 368.2 m (surveyed)
Variation: 06E (1985)
From city: 2 miles N of EUREKA, KS
Time zone: UTC -5 (UTC -6 during Standard Time)
Zip code: 67045

Airport Operations

Airport use: Open to the public
Activation date: 07/1959
Control tower: no
ARTCC: KANSAS CITY CENTER
FSS: WICHITA FLIGHT SERVICE STATION
NOTAMs facility: ICT (NOTAM-D service available)
Attendance: 0800-1700
Wind indicator: lighted, WIND INDICATOR IS FADED.
Segmented circle: yes
Beacon: white-green (lighted land airport)
Operates sunset to sunrise.

Airport Communications

CTAF/UNICOM: 122.8
WX AWOS-3: 120.975 (620-583-5442)
  • APCH/DEP SERVICE PROVIDED BY KANSAS CITY ARTCC ON FREQS 120.2/323.2 (EMPORIA RCAG).

Nearby radio navigation aids

VOR radial/distance  VOR name  Freq  Var
EMPr187/27.4EMPORIA VORTAC112.8008E
CNUr287/35.8CHANUTE VOR/DME109.2005E

 
NDB name  Hdg/Dist  Freq  Var  ID
BOYD220/38.124505EUKL ..- -.- .-..

Airport Services

Fuel available: 100LL MOGAS
Parking: tiedowns
Airframe service: MAJOR
Powerplant service: MAJOR
Bottled oxygen: NONE
Bulk oxygen: NONE

Runway Information

Runway 18/36

Dimensions: 3504 x 60 ft. / 1068 x 18 m
Surface: asphalt, in fair condition
Weight bearing capacity: 
Single wheel: 8.0
Runway edge lights: low intensity
Runway edge markings: NRS ARE FADED DUE TO AGE AND WEATHER.
Gradient: N
RUNWAY 18  RUNWAY 36
Latitude: 37-51.323765N37-50.756317N
Longitude: 096-17.419327W096-17.552978W
Elevation: 1206.4 ft.1195.6 ft.
Gradient: 0.3%0.3% UP
Traffic pattern: leftleft
Runway heading: 185 magnetic, 191 true005 magnetic, 011 true
Markings: numbers only, in poor conditionnumbers only, in poor condition
Visual slope indicator: 2-light PAPI on left (3.00 degrees glide path)2-light PAPI on left (3.00 degrees glide path)
Runway end identifier lights: nono
Touchdown point: yes, no lightsyes, no lights

Runway 8/26

Dimensions: 2146 x 55 ft. / 654 x 17 m
Surface: turf, in fair condition
Runway edge markings: WHITE TIRES MARK RY END.
Gradient: E
RUNWAY 8  RUNWAY 26
Latitude: 37-51.182243N37-51.197352N
Longitude: 096-17.802540W096-17.356937W
Elevation: 1194.6 ft.1208.1 ft.
Gradient: 0.6% UP0.6%
Traffic pattern: leftleft
Runway heading: 081 magnetic, 087 true261 magnetic, 267 true
Runway end identifier lights: nono
Touchdown point: yes, no lightsyes, no lights
Obstructions: 4 ft. fence, marked, 76 ft. from runway, 19:1 slope to clear
DELINEATED WITH WHITE PAINTED TIRES.
23 ft. pline, 502 ft. from runway, 21:1 slope to clear

Airport Ownership and Management from official FAA records

Ownership: Publicly-owned
Owner: CITY OF EUREKA
MEMORIAL HALL
EUREKA, KS 67045
Phone 620-583-6511
Manager: LARRY DUTTON
1667 P ROAD
EUREKA, KS 67045
Phone 620-583-7732

Airport Operational Statistics

Aircraft based on the field: 14
Single engine airplanes: 13
Helicopters: 1
    
Aircraft operations: avg 94/week *
80% local general aviation
20% transient general aviation
* for 12-month period ending 01 September 2017

Additional Remarks

A58-36 GROUND DROPS DOWN ABRUPTLY 85 FT FM END OF RY.
WILDLIFE ON & INVOF ARPT.
RY 18/36 NSTD LIRL; NON-BREAKABLE COUPLINGS & VARIES IN ELEV OVR 14 INCHES. RY 18 THLD LGTS ON GND; RY 36 NSTD THLD LGTS.

Instrument Procedures

NOTE: All procedures below are presented as PDF files. If you need a reader for these files, you should download the free Adobe Reader.

NOT FOR NAVIGATION. Please procure official charts for flight.
FAA instrument procedures published for use from 21 June 2018 at 0901Z to 19 July 2018 at 0900Z.

 
IAPs - Instrument Approach Procedures
RNAV (GPS) RWY 18 **CHANGED**   download (185KB)
VOR/DME RWY 18 **CHANGED**   download (193KB)
NOTE: Special Take-Off Minimums/Departure Procedures apply   download (213KB)

Other nearby airports with instrument procedures:

KEQA - El Dorado/Captain Jack Thomas Memorial Airport (25 nm W)
KEMP - Emporia Municipal Airport (29 nm N)
KUKL - Coffey County Airport (38 nm NE)
3AU - Augusta Municipal Airport (39 nm W)
1K1 - Lloyd Stearman Field Airport (39 nm W)
 
Loc | Ops | Rwys | IFR | FBO | Links
Com | Nav | Svcs | Stats | Notes

Kansas City Aviation Department
 
Area around 13K (Lt. William M. Milliken Airport)
 
Road maps at: MapQuest Bing Google
 
Aerial photo
WARNING: Photo may not be current or correct
Aerial photo of 13K (Lt. William M. Milliken Airport)
Photo by David Newcomer
Photo taken 17-Oct-2015
from 4,500 altitude looking southeast.

Do you have a better or more recent aerial photo of Lt. William M. Milliken Airport that you would like to share? If so, please send us your photo.

 
Sectional chart

 
Airport distance calculator
Flying to Lt. William M. Milliken Airport? Find the distance to fly.

From to 13K

Sunrise and sunset
Times for 17-Jul-2018
 Local
(UTC-5)
 Zulu
(UTC)
Morning civil twilight05:4710:47
Sunrise06:1711:17
Sunset20:4501:45
Evening civil twilight21:1502:15

Current date and time
Zulu (UTC)  17-Jul-2018 16:17:37
Local (UTC-5)  17-Jul-2018 11:17:37
 
METAR
KEQA 
25nm W 
171555Z AUTO 34005KT 10SM -DZ SCT034 BKN050 OVC095 A3012 RMK AO2
KEMP 
29nm N 
171553Z AUTO 28006KT 7SM -RA FEW080 BKN110 22/21 A3009 RMK AO2 TSE1456B27E42 PRESFR SLP181 P0010 T02220211
K3AU 
39nm W 
171555Z AUTO 36007KT 10SM RA BKN026 OVC032 21/21 A3013 RMK AO2
K1K1 
39nm W 
171555Z AUTO 06003KT 7SM RA BKN037 BKN055 OVC120 21/21 A3011 RMK AO2 T02100206
KCNU 
40nm E 
171552Z AUTO 32005KT 10SM SCT040 OVC075 28/24 A3008 RMK AO2 LTG DSNT SW-NW SLP174 T02780239
KK88 
43nm E 
171535Z AUTO 00000KT 10SM 27/22 A3009 RMK AO1 T02650218
KAAO 
44nm W 
171554Z AUTO 05007KT 10SM -RA FEW031 BKN090 OVC120 22/22 A3010 RMK AO2 LTG DSNT S RAE05B23 SLP182 P0007 T02220222
KBEC 
45nm W 
171555Z AUTO 06007KT 10SM -RA BKN030 BKN039 OVC110 22/21 A3010 RMK AO2 LTG DSNT E AND SE P0001 T02230212
KEWK 
47nm W 
171556Z AUTO 03007KT 10SM -RA BKN005 21/21 A3011 RMK AO2 CIG 003V008 SLP182 P0020 T02110206
KIDP 
48nm SE 
171555Z AUTO 28016G23KT 10SM VCTS SCT021 BKN030 BKN065 26/22 A3009 RMK AO2 LTG DSNT ALQDS T02570221
TAF
KCNU 
40nm E 
171120Z 1712/1812 VRB04KT P6SM SCT080 FM171600 12005KT P6SM SCT040 FM172100 10007KT P6SM VCTS BKN040CB FM180600 VRB04KT P6SM BKN250
KIAB 
48nm W 
171250Z 1712/1816 12009KT 8000 -SHRA VCTS BKN050CB QNH3002INS TEMPO 1712/1713 33015G25KT 4800 -TSRA BKN020CB TEMPO 1713/1715 VRB25G35KT 2400 TSRA OVC020CB TEMPO 1715/1716 33015G25KT 4800 -TSRA BKN020CB BECMG 1716/1717 16010G15KT 8000 -SHRA VCTS BKN040CB QNH2995INS TEMPO 1717/1719 VRB20G35KT 4800 TSRA BKN020CB BECMG 1800/1801 VRB06KT 9999 NSW SCT010 BKN030 QNH2997INS BECMG 1811/1812 10015G20KT 4800 -TSRA BKN020CB QNH2996INS TX33/1721Z TN22/1712Z
NOTAMs
Click for the latest NOTAMs
NOTAMs are issued by the DoD/FAA and will open in a separate window not controlled by AirNav.

 

 
 

FBO, Fuel Providers, and Aircraft Ground Support

  
 Business Name 
 
 Contact 
 
 Services / Description 
 
Fuel Prices
 
Comments
  
Captain D Aviation 620-583-7732
no information available

If you are affiliated with Captain D Aviation and would like to show here your services, contact info, web link, logo, and more, click here
100LL Mogas
FS $4.69 $3.31 
 Updated 18-Jun-2018
 
   write
FS=Full service
Update Fuel Prices
 

Would you like to see your business listed on this page?

 If your business provides an interesting product or service to pilots, flight crews, aircraft, or users of the Lt. William M. Milliken Airport, you should consider listing it here.  To start the listing process, click on the button below
 
Add a business
 

Other Pages about Lt. William M. Milliken Airport

Update a link
 
Copyright © AirNav, LLC. All rights reserved. Privacy Policy  Contact